Location: ????????
(60.4333°N, 46.4710°E)
Time: 19:52:47
(UTC+00:00)

Envisat - Pass Details

Date: 25 November 2020
Orbit: 764 x 766 km, 98.1° (Epoch: 17 January)

Event Time Altitude Azimuth Distance (km) Brightness Sun altitude
Rises 13:41:24 0° 167° (SSE) 3,227 6.4 -11.0°
Reaches altitude 10° 13:43:42 10° 170° (S) 2,305 5.6 -11.3°
Maximum altitude 13:48:47 73° 255° (WSW) 808 3.3 -11.9°
Drops below altitude 10° 13:53:54 10° 340° (NNW) 2,321 5.5 -12.5°
Sets 13:56:14 0° 343° (NNW) 3,251 6.2 -12.7°
